Regional Weather Roundup
Issued by NWS Kansas City/Pleasant Hill, MO

Home | Current Version | Previous Version | Text Only | Print | Product List | Glossary On
Versions: 1 2 3 4 5 6 7 8 9 10 11 12 13 14 15 16 17 18 19 20 21 22 23 24 25 26 27 28 29 30 31 32 33 34 35 36 37 38 39 40 41 42 43 44 45 46 47 48 49 50
178
ASUS43 KEAX 281610
RWREAX

WEATHER ROUNDUP FOR EASTERN KANSAS AND NORTHWEST MISSOURI
NATIONAL WEATHER SERVICE KANSAS CITY/PLEASANT HILL MO
1100 AM CDT THU JUL 28 2016

KSZ040-057-103>105-MOZ028-029-037-043-281700-
...KANSAS CITY METROPOLITAN AREA...

CITY           SKY/WX    TMP DP  RH WIND       PRES   REMARKS
K.C. INTL      PTSUNNY   82  69  64 NW8       29.98S
K.C. DOWNTOWN  SUNNY     85  69  58 NW9       29.96S
LEES SUMMIT    MOSUNNY   83  72  69 NW12      29.97S
OLATHE - IXD   PTSUNNY   83  71  67 N9        29.99S
OLATHE - OJC   PTSUNNY   84  69  60 N10       29.98S
LAWRENCE       MOSUNNY   84  71  65 N8        29.97F

$$

MOZ001>008-011>017-020>025-030>033-038>040-044>046-053-054-281700-
...NORTHERN AND CENTRAL MISSOURI...

CITY           SKY/WX    TMP DP  RH WIND       PRES   REMARKS
ST. JOSEPH     SUNNY     82  72  71 N9        29.98S
MOSBY          SUNNY     81  70  69 NW7       29.96F
WHITEMAN AFB   NOT AVBL
CLINTON        MOSUNNY   86  75  70 NW7       29.95S HX  95
SEDALIA        CLOUDY    86  75  69 N5        29.96S HX  95
WARSAW         NOT AVBL
CHILLICOTHE      N/A     86  71  60 MISG      29.96S HX  91
KIRKSVILLE     MOSUNNY   84  68  58 N9        29.96R

$$

MOZ041-047>049-056>058-063>065-088>090-097-281700-
...EASTERN AND SOUTHERN MISSOURI...

CITY           SKY/WX    TMP DP  RH WIND       PRES   REMARKS
ST. LOUIS INTL MOSUNNY   87  73  62 W9        29.91S HX  94
SPIRIT OF STL  MOSUNNY   86  75  69 NW7       29.90S HX  95
COLUMBIA       MOSUNNY   85  73  67 NW6       29.94S HX  91
JEFFERSON CITY MOSUNNY   86  72  62 VRB5      29.92S HX  92
ROLLA          MOSUNNY   84  72  67 NW12      29.94F
OSAGE BEACH    MOSUNNY   85  72  65 NW5       29.95F HX  91
SPRINGFIELD    SUNNY     86  74  67 NW7       29.97S HX  94
BRANSON        MOSUNNY   82  73  74 CALM      30.00S
JOPLIN         SUNNY     86  77  74 W7        29.98S HX  97
WEST PLAINS    MOSUNNY   84  74  71 VRB3      29.98F HX  91

$$

IAZ060-094-KSZ022-034>040-054-083-096-NEZ052-066-093-281700-
...KANSAS...SOUTHEAST NEBRASKA AND IOWA...

CITY           SKY/WX    TMP DP  RH WIND       PRES   REMARKS
TOPEKA           N/A     83  71  67 NE9       29.98F
MANHATTAN      MOSUNNY   84  71  65 N3        29.99F
EMPORIA        MOSUNNY   83  71  67 NE9       29.98F
CHANUTE        TSTM      74  67  78 SE6       29.99F
WICHITA        MOSUNNY   89  71  55 VRB3      29.98R HX  95
OMAHA          MOSUNNY   79  68  69 N10       30.02F
LINCOLN        SUNNY     80  67  64 N7        30.05S
FALLS CITY     SUNNY     82  71  69 NE7       29.99F
LAMONI         SUNNY     78  68  71 N12       29.99S
DES MOINES     MOSUNNY   78  66  66 N12G21    29.99R

$$





USA.gov is the U.S. government's official web portal to all federal, state and local government web resources and services.